Regional Weather Roundup
Issued by NWS

Home | Current Version | Previous Version | Text Only | Print | Product List | Glossary On
Versions: 1 2 3 4 5 6 7 8 9 10 11 12 13 14 15 16 17 18 19 20 21 22 23 24 25 26 27 28 29 30 31 32 33 34 35 36 37 38 39 40 41 42 43 44 45 46 47 48 49 50
000
ASUS43 KIND 222009
RWRIN

WEATHER ROUNDUP FOR INDIANA
NATIONAL WEATHER SERVICE INDIANAPOLIS IN
300 PM EST MON DEC 22 2014

NOTE: "FAIR" INDICATES FEW OR NO CLOUDS BELOW 12,000 FEET WITH NO
SIGNIFICANT WEATHER AND/OR OBSTRUCTIONS TO VISIBILITY.

* - STATION DOES NOT REPORT WEATHER SUCH AS PRECIPITATION OR FOG.

+ - STATION NOT QUALITY CONTROLLED BY THE NATIONAL WEATHER SERVICE.
    USE DATA WITH CAUTION...ESPECIALLY DEWPOINT AND RELATIVE
    HUMIDITY OBSERVATIONS.

INZ001>003-010>013-019-020-222100-
NORTHWEST INDIANA

CITY           SKY/WX    TMP DP  RH WIND       PRES   REMARKS
GARY /AIRPORT/ CLOUDY    39  34  81 SE12      29.75F FOG
KNOX *+        CLOUDY    38  33  81 SE15      29.78F
LA PORTE +     DRIZZLE   38  36  92 SE9       29.78F
MICHIGAN CITY+ DRIZZLE   36  30  80 E8        29.77F
MONTICELLO +   CLOUDY    38  37  95 SE8G17    29.76F FOG
RENSSELAER +   DRIZZLE   37  37 100 SE12      29.75F
VALPARAISO     LGT RAIN  37  35  92 E12       29.76F FOG

$$

LMZ046-743>745-222100-
SOUTHERN LAKE MICHIGAN

STATION/POSITION TIME  TEMP WIND        PRES
                       AIR  DIR/SP/G
                 (UTC) (F)  (DEG/KT/KT) (MB)

$$

INZ004-005-014>016-021>024-222100-
NORTH CENTRAL INDIANA

CITY           SKY/WX    TMP DP  RH WIND       PRES   REMARKS
ELKHART        DRIZZLE   36  30  80 E13       29.83F
GOSHEN         LGT RAIN  36  32  85 SE12      29.83F FOG
LOGANSPORT +   CLOUDY    36  34  93 E12       29.79F FOG
PERU/GRISSOM   CLOUDY    37  37 100 E12       29.79F
ROCHESTER +    CLOUDY    39  36  87 E9        29.81F FOG
SOUTH BEND     LGT RAIN  36  32  85 E14       29.81F FOG
WARSAW +       DRIZZLE   36  32  87 SE12      29.83F

$$

INZ006>009-017-018-025>027-222100-
NORTHEAST INDIANA

CITY           SKY/WX    TMP DP  RH WIND       PRES   REMARKS
ANGOLA *+      MOSUNNY   36  30  80 SE7       29.86F
AUBURN +       DRIZZLE   36  32  87 E7        29.87F
FORT WAYNE     CLOUDY    37  33  85 E9        29.86F
HUNTINGTON +   CLOUDY    37  34  90 E6        29.83F

$$

INZ028-029-035-036-043>045-051>053-222100-
WEST CENTRAL INDIANA

CITY           SKY/WX    TMP DP  RH WIND       PRES   REMARKS
CRAWFORDSVL +  CLOUDY    39  34  81 SE10      29.75
GREENCASTLE +  CLOUDY    41  34  75 SE7       29.76F
LAFAYETTE      CLOUDY    40  38  93 SE12      29.76F FOG
TERRE HAUTE    CLOUDY    47  41  80 SE13      29.73F

$$

INZ030>032-037>040-046>048-054>057-064-065-222100-
CENTRAL INDIANA

CITY           SKY/WX    TMP DP  RH WIND       PRES   REMARKS
ANDERSON       MOSUNNY   43  36  75 SE17      29.83
CP ATTERBURY + CLOUDY    46  39  76 MISG      29.80F
COLUMBUS       PTSUNNY   48  43  81 SE6       29.79F
FRANKFORT +    CLOUDY    40  38  91 E12       29.78F FOG
INDIANAPOLIS   CLOUDY    44  37  76 SE14      29.77F
-EAGLE CREEK   CLOUDY    44  37  76 E8        29.78F
KOKOMO *+      CLOUDY    37  34  87 SE10      29.80F
MARION +       CLOUDY    39  34  80 E5        29.82F
MT COMFORT *+  CLOUDY    43  34  70 SE8       29.80F
SHELBYVILLE    CLOUDY    46  38  73 E8        29.79F
ZIONSVILLE +   CLOUDY    42  36  77 SE8       29.79F

$$

INZ033-034-041-042-049-050-058-059-222100-
EAST CENTRAL INDIANA

CITY           SKY/WX    TMP DP  RH WIND       PRES   REMARKS
MUNCIE         CLOUDY    43  36  76 SE10      29.82F

$$

INZ060-061-067>069-081>083-085>088-222100-
SOUTHWEST INDIANA

CITY           SKY/WX    TMP DP  RH WIND       PRES   REMARKS
EVANSVILLE     LGT RAIN  51  45  79 SE10G20   29.72F
HUNTINGBURG *+ CLOUDY    50  43  76 SE13      29.75F
WASHINGTON +   RAIN      49  42  78 SE13      29.74F

$$

INZ062-063-066-070>080-084-089>092-222100-
SOUTH CENTRAL AND SOUTHEAST INDIANA

CITY           SKY/WX    TMP DP  RH WIND       PRES   REMARKS
BLOOMINGTON    CLOUDY    45  38  76 SE7       29.77F
NORTH VERNON + CLOUDY    50  39  66 SE6       29.80F

$$




USA.gov is the U.S. government's official web portal to all federal, state and local government web resources and services.